Location: White Ridge parking lot
(35.4984°N, 106.8413°W)
Time: 21:54:21
(UTC-06:00)

XW-2D - Pass Details

Date: 21 September 2019
Orbit: 507 x 528 km, 97.5° (Epoch: 16 October)

Event Time Altitude Azimuth Distance (km) Brightness Sun altitude
Rises 06:10:51 0° 30° (NNE) 2,643 ? -9.7°
Reaches altitude 10° 06:13:29 10° 50° (NE) 1,746 ? -9.1°
Maximum altitude 06:16:08 18° 95° (E) 1,306 ? -8.6°
Drops below altitude 10° 06:18:44 10° 139° (SE) 1,728 ? -8.1°
Sets 06:21:19 0° 159° (SSE) 2,604 ? -7.6°
